DHL1407 KGPI-CYWG

Flight info

Callsign DHL1407
Flight time 1h 49m
Altitude 37000
Route SKOTT2 SKOTT DCT SEGAP BEFAN5
Aircraft B738/M-SDE2E3FGHIRWXY/LB1

Departure

Time 2026-04-24 22:33
Airport Glacier Park International Airport (KGPI)

Arrival

Time 2026-04-25 00:22
Airport Winnipeg / James Armstrong Richardson International Airport (CYWG)
Time Latitude Longitude Altitude Speed Heading
2026-04-24 22:17 48.30996 -114.24877 2977 ft 0 kts 226°
2026-04-24 22:27 48.30990 -114.24918 2977 ft 9 kts 277°
2026-04-24 22:28 48.31020 -114.25034 2977 ft 15 kts 279°
2026-04-24 22:28 48.31023 -114.25212 2977 ft 17 kts 271°
2026-04-24 22:28 48.31024 -114.25388 2977 ft 17 kts 257°
2026-04-24 22:28 48.30928 -114.25463 2977 ft 16 kts 214°
2026-04-24 22:29 48.30754 -114.25646 2977 ft 15 kts 215°
2026-04-24 22:29 48.30671 -114.25730 2977 ft 14 kts 214°
2026-04-24 22:29 48.30592 -114.25811 2977 ft 14 kts 215°
2026-04-24 22:30 48.30494 -114.25915 2977 ft 23 kts 216°
2026-04-24 22:30 48.30329 -114.26090 2977 ft 35 kts 215°
2026-04-24 22:30 48.30111 -114.26316 2977 ft 38 kts 214°
2026-04-24 22:30 48.29905 -114.26528 2981 ft 30 kts 215°
2026-04-24 22:31 48.29866 -114.26702 2983 ft 19 kts 316°
2026-04-24 22:31 48.29948 -114.26692 2980 ft 0 kts 32°
2026-04-24 22:31 48.29951 -114.26690 2980 ft 0 kts 31°
2026-04-24 22:31 48.29952 -114.26688 2980 ft 1 kts 31°
2026-04-24 22:32 48.29957 -114.26684 2980 ft 0 kts 31°
2026-04-24 22:32 48.29964 -114.26678 2979 ft 2 kts 31°
2026-04-24 22:32 48.30000 -114.26643 2978 ft 24 kts 33°
2026-04-24 22:32 48.30358 -114.26273 2979 ft 102 kts 34°
2026-04-24 22:33 48.31151 -114.25447 2989 ft 172 kts 34°
2026-04-24 22:33 48.32234 -114.24315 3454 ft 198 kts 31°
2026-04-24 22:33 48.33387 -114.23124 3853 ft 203 kts 25°
2026-04-24 22:33 48.34703 -114.22396 4343 ft 203 kts
2026-04-24 22:34 48.36099 -114.22599 4974 ft 204 kts 336°
2026-04-24 22:34 48.37211 -114.23863 5750 ft 205 kts 308°
2026-04-24 22:34 48.37787 -114.25857 6260 ft 221 kts 283°
2026-04-24 22:34 48.37741 -114.28267 6645 ft 245 kts 261°
2026-04-24 22:35 48.37015 -114.30712 6971 ft 272 kts 239°
2026-04-24 22:35 48.35596 -114.32908 6953 ft 314 kts 218°
2026-04-24 22:35 48.33641 -114.34280 7312 ft 312 kts 196°
2026-04-24 22:35 48.31472 -114.34398 7823 ft 315 kts 168°
2026-04-24 22:36 48.29538 -114.32903 8021 ft 324 kts 136°
2026-04-24 22:36 48.28135 -114.30306 8474 ft 317 kts 119°
2026-04-24 22:36 48.27172 -114.27375 9081 ft 308 kts 110°
2026-04-24 22:36 48.26270 -114.24552 9970 ft 294 kts 115°
2026-04-24 22:37 48.25174 -114.21938 10650 ft 304 kts 126°
2026-04-24 22:37 48.23780 -114.19408 11147 ft 325 kts 132°
2026-04-24 22:37 48.22004 -114.17217 11745 ft 332 kts 152°
2026-04-24 22:37 48.19820 -114.16109 12233 ft 337 kts 175°
2026-04-24 22:38 48.17417 -114.16200 12364 ft 354 kts 188°
2026-04-24 22:38 48.14950 -114.16523 13007 ft 356 kts 187°
2026-04-24 22:38 48.12517 -114.16763 13081 ft 346 kts 184°
2026-04-24 22:38 48.10146 -114.16877 12949 ft 335 kts 182°
2026-04-24 22:39 48.07838 -114.16824 12773 ft 328 kts 178°
2026-04-24 22:39 48.05605 -114.16617 12807 ft 318 kts 177°
2026-04-24 22:39 48.03419 -114.16395 12820 ft 313 kts 178°
2026-04-24 22:39 48.01231 -114.16190 12924 ft 327 kts 178°
2026-04-24 22:40 47.98879 -114.15992 13129 ft 349 kts 178°
2026-04-24 22:40 47.96372 -114.15796 13327 ft 371 kts 178°
2026-04-24 22:40 47.93727 -114.15597 13606 ft 387 kts 178°
2026-04-24 22:40 47.91007 -114.15398 14189 ft 394 kts 178°
2026-04-24 22:41 47.88254 -114.15198 14802 ft 398 kts 178°
2026-04-24 22:41 47.85464 -114.14998 15387 ft 404 kts 178°
2026-04-24 22:41 47.82636 -114.14786 15932 ft 410 kts 176°
2026-04-24 22:41 47.79873 -114.13846 16418 ft 418 kts 155°
2026-04-24 22:42 47.77458 -114.11439 17020 ft 420 kts 134°
2026-04-24 22:42 47.75705 -114.08005 17614 ft 418 kts 114°
2026-04-24 22:42 47.74793 -114.03947 18183 ft 413 kts 94°
2026-04-24 22:42 47.74744 -113.99716 18717 ft 407 kts 76°
2026-04-24 22:43 47.75472 -113.95694 19274 ft 403 kts 67°
2026-04-24 22:43 47.76364 -113.91741 19815 ft 405 kts 66°
2026-04-24 22:43 47.77287 -113.87747 20306 ft 409 kts 66°
2026-04-24 22:43 47.78214 -113.83731 20808 ft 412 kts 66°
2026-04-24 22:44 47.79139 -113.79683 21311 ft 416 kts 67°
2026-04-24 22:44 47.80061 -113.75595 21808 ft 419 kts 67°
2026-04-24 22:44 47.80985 -113.71459 22338 ft 421 kts 68°
2026-04-24 22:44 47.81893 -113.67365 22825 ft 424 kts 68°
2026-04-24 22:45 47.82817 -113.63171 23305 ft 427 kts 68°
2026-04-24 22:45 47.83742 -113.58953 23753 ft 430 kts 68°
2026-04-24 22:45 47.84673 -113.54706 24093 ft 433 kts 68°
2026-04-24 22:45 47.85607 -113.50430 24429 ft 436 kts 68°
2026-04-24 22:46 47.86550 -113.46110 24784 ft 439 kts 68°
2026-04-24 22:46 47.87494 -113.41770 25144 ft 442 kts 69°
2026-04-24 22:46 47.88442 -113.37403 25480 ft 444 kts 69°
2026-04-24 22:46 47.89397 -113.32998 25791 ft 448 kts 69°
2026-04-24 22:47 47.90345 -113.28614 26072 ft 451 kts 69°
2026-04-24 22:47 47.91311 -113.24138 26366 ft 455 kts 69°
2026-04-24 22:47 47.92282 -113.19631 26660 ft 457 kts 69°
2026-04-24 22:47 47.93256 -113.15097 26950 ft 460 kts 69°
2026-04-24 22:48 47.94234 -113.10539 27221 ft 463 kts 69°
2026-04-24 22:48 47.95215 -113.05951 27508 ft 466 kts 69°
2026-04-24 22:48 47.96203 -113.01323 27768 ft 469 kts 70°
2026-04-24 22:48 47.97194 -112.96669 28037 ft 471 kts 69°
2026-04-24 22:49 47.98182 -112.92019 28525 ft 468 kts 69°
2026-04-24 22:49 47.99151 -112.87444 28936 ft 467 kts 70°
2026-04-24 22:49 48.00130 -112.82814 29366 ft 467 kts 70°
2026-04-24 22:49 48.01107 -112.78186 29732 ft 467 kts 70°
2026-04-24 22:50 48.02085 -112.73545 30056 ft 469 kts 70°
2026-04-24 22:50 48.03070 -112.68863 30215 ft 474 kts 70°
2026-04-24 22:50 48.04058 -112.64153 30497 ft 474 kts 69°
2026-04-24 22:50 48.05039 -112.59459 30824 ft 473 kts 69°
2026-04-24 22:51 48.06021 -112.54750 31086 ft 474 kts 69°
2026-04-24 22:51 48.07008 -112.50015 31083 ft 478 kts 69°
2026-04-24 22:51 48.08978 -112.40520 31093 ft 475 kts 69°
2026-04-24 22:52 48.10909 -112.31159 31116 ft 474 kts 69°
2026-04-24 22:52 48.11885 -112.26420 31273 ft 476 kts 69°
2026-04-24 22:52 48.12862 -112.21664 31496 ft 477 kts 70°
2026-04-24 22:53 48.13828 -112.16941 31992 ft 472 kts 69°
2026-04-24 22:53 48.14775 -112.12299 32336 ft 470 kts 69°
2026-04-24 22:53 48.15734 -112.07598 32485 ft 474 kts 70°
2026-04-24 22:53 48.16699 -112.02855 32667 ft 476 kts 70°
2026-04-24 22:54 48.17663 -111.98106 32960 ft 474 kts 70°
2026-04-24 22:54 48.18619 -111.93379 33285 ft 473 kts 70°
2026-04-24 22:54 48.19574 -111.88645 33494 ft 475 kts 69°
2026-04-24 22:54 48.20532 -111.83894 33677 ft 477 kts 70°
2026-04-24 22:55 48.21490 -111.79126 33875 ft 478 kts 70°
2026-04-24 22:55 48.22442 -111.74373 34274 ft 474 kts 70°
2026-04-24 22:55 48.23376 -111.69699 34478 ft 474 kts 70°
2026-04-24 22:55 48.24322 -111.64955 34600 ft 476 kts 70°
2026-04-24 22:56 48.25268 -111.60199 34817 ft 475 kts 70°
2026-04-24 22:56 48.26212 -111.55442 35032 ft 473 kts 71°
2026-04-24 22:56 48.28079 -111.45997 35124 ft 473 kts 70°
2026-04-24 22:57 48.29950 -111.36503 35136 ft 479 kts 70°
2026-04-24 22:57 48.31838 -111.26864 35138 ft 482 kts 71°
2026-04-24 22:58 48.33716 -111.17219 35128 ft 477 kts 71°
2026-04-24 22:58 48.35564 -111.07670 35133 ft 473 kts 70°
2026-04-24 22:59 48.37402 -110.98147 35126 ft 474 kts 71°
2026-04-24 23:00 48.40137 -110.83887 35108 ft 475 kts 71°
2026-04-24 23:00 48.41964 -110.74297 35093 ft 476 kts 71°
2026-04-24 23:01 48.43787 -110.64675 35107 ft 478 kts 71°
2026-04-24 23:01 48.45607 -110.55025 35080 ft 479 kts 71°
2026-04-24 23:02 48.47411 -110.45408 35072 ft 480 kts 71°
2026-04-24 23:02 48.49220 -110.35710 35052 ft 480 kts 72°
2026-04-24 23:03 48.51019 -110.26016 35053 ft 479 kts 72°
2026-04-24 23:03 48.52796 -110.16395 35030 ft 479 kts 72°
2026-04-24 23:04 48.54571 -110.06729 35009 ft 477 kts 72°
2026-04-24 23:04 48.56335 -109.97078 35007 ft 476 kts 72°
2026-04-24 23:05 48.58085 -109.87446 35026 ft 475 kts 72°
2026-04-24 23:05 48.59827 -109.77817 35019 ft 475 kts 72°
2026-04-24 23:06 48.61562 -109.68171 35019 ft 476 kts 72°
2026-04-24 23:06 48.63294 -109.58492 34996 ft 477 kts 72°
2026-04-24 23:07 48.65010 -109.48850 34998 ft 478 kts 72°
2026-04-24 23:07 48.66734 -109.39105 34993 ft 480 kts 72°
2026-04-24 23:08 48.68168 -109.30963 34993 ft 482 kts 72°
2026-04-24 23:08 48.69890 -109.21137 34980 ft 484 kts 72°
2026-04-24 23:09 48.71609 -109.11271 34959 ft 485 kts 73°
2026-04-24 23:09 48.73322 -109.01381 34977 ft 486 kts 72°
2026-04-24 23:10 48.75022 -108.91514 34965 ft 486 kts 72°
2026-04-24 23:10 48.76709 -108.81665 34954 ft 486 kts 73°
2026-04-24 23:11 48.78388 -108.71809 34946 ft 485 kts 73°
2026-04-24 23:11 48.80066 -108.61900 34963 ft 484 kts 73°
2026-04-24 23:12 48.81732 -108.52008 34956 ft 484 kts 73°
2026-04-24 23:12 48.83388 -108.42118 34942 ft 482 kts 73°
2026-04-24 23:13 48.85030 -108.32255 34951 ft 481 kts 73°
2026-04-24 23:13 48.86659 -108.22410 34961 ft 480 kts 73°
2026-04-24 23:14 48.88280 -108.12566 34954 ft 481 kts 73°
2026-04-24 23:14 48.89913 -108.02592 34951 ft 490 kts 73°
2026-04-24 23:15 48.91547 -107.92551 34931 ft 496 kts 73°
2026-04-24 23:15 48.93199 -107.82328 34933 ft 497 kts 74°
2026-04-24 23:16 48.94831 -107.72157 34924 ft 489 kts 74°
2026-04-24 23:16 48.96425 -107.62160 34929 ft 483 kts 73°
2026-04-24 23:17 48.98003 -107.52220 34932 ft 481 kts 74°
2026-04-24 23:17 48.99559 -107.42367 34928 ft 480 kts 74°
2026-04-24 23:18 49.01110 -107.32477 34925 ft 480 kts 74°
2026-04-24 23:18 49.02655 -107.22571 34943 ft 481 kts 74°
2026-04-24 23:19 49.04195 -107.12633 34939 ft 482 kts 74°
2026-04-24 23:19 49.05731 -107.02654 34926 ft 484 kts 74°
2026-04-24 23:20 49.07265 -106.92625 34928 ft 486 kts 75°
2026-04-24 23:20 49.08785 -106.82630 34925 ft 488 kts 75°
2026-04-24 23:21 49.10313 -106.72517 34915 ft 488 kts 75°
2026-04-24 23:21 49.11831 -106.62403 34915 ft 489 kts 75°
2026-04-24 23:22 49.13339 -106.52286 34920 ft 489 kts 75°
2026-04-24 23:22 49.14842 -106.42145 34912 ft 489 kts 75°
2026-04-24 23:23 49.16325 -106.32073 34926 ft 489 kts 75°
2026-04-24 23:23 49.17811 -106.21909 34907 ft 490 kts 75°
2026-04-24 23:24 49.19288 -106.11741 34912 ft 489 kts 75°
2026-04-24 23:24 49.20757 -106.01568 34904 ft 489 kts 75°
2026-04-24 23:25 49.22214 -105.91401 34893 ft 489 kts 75°
2026-04-24 23:25 49.23655 -105.81287 34901 ft 489 kts 76°
2026-04-24 23:26 49.25093 -105.71116 34901 ft 489 kts 76°
2026-04-24 23:26 49.26526 -105.60921 34893 ft 490 kts 76°
2026-04-24 23:27 49.27952 -105.50697 34887 ft 490 kts 76°
2026-04-24 23:27 49.29371 -105.40460 34877 ft 491 kts 76°
2026-04-24 23:28 49.30778 -105.30230 34882 ft 491 kts 76°
2026-04-24 23:28 49.32180 -105.19975 34881 ft 491 kts 77°
2026-04-24 23:29 49.33573 -105.09705 34875 ft 491 kts 77°
2026-04-24 23:29 49.34947 -104.99504 34874 ft 491 kts 77°
2026-04-24 23:30 49.36321 -104.89233 34864 ft 491 kts 77°
2026-04-24 23:30 49.37685 -104.78961 34871 ft 491 kts 78°
2026-04-24 23:31 49.39039 -104.68689 34871 ft 491 kts 78°
2026-04-24 23:31 49.40385 -104.58401 34866 ft 491 kts 78°
2026-04-24 23:32 49.41712 -104.48189 34866 ft 491 kts 78°
2026-04-24 23:32 49.43040 -104.37891 34858 ft 492 kts 78°
2026-04-24 23:33 49.44362 -104.27570 34858 ft 492 kts 78°
2026-04-24 23:33 49.45675 -104.17228 34860 ft 493 kts 79°
2026-04-24 23:34 49.46984 -104.06850 34862 ft 494 kts 79°
2026-04-24 23:34 49.48285 -103.96456 34864 ft 495 kts 79°
2026-04-24 23:35 49.49572 -103.86091 34856 ft 496 kts 79°
2026-04-24 23:35 49.50858 -103.75652 34844 ft 497 kts 79°
2026-04-24 23:36 49.52135 -103.65206 34842 ft 497 kts 79°
2026-04-24 23:36 49.53403 -103.54744 34848 ft 496 kts 79°
2026-04-24 23:37 49.54652 -103.44367 34852 ft 496 kts 79°
2026-04-24 23:37 49.56519 -103.28690 34843 ft 495 kts 80°
2026-04-24 23:38 49.57752 -103.18234 34849 ft 495 kts 80°
2026-04-24 23:38 49.58965 -103.07863 34853 ft 494 kts 80°
2026-04-24 23:39 49.60177 -102.97414 34848 ft 494 kts 80°
2026-04-24 23:39 49.61379 -102.86973 34845 ft 494 kts 80°
2026-04-24 23:40 49.62571 -102.76520 34838 ft 495 kts 80°
2026-04-24 23:40 49.63754 -102.66066 34837 ft 495 kts 81°
2026-04-24 23:41 49.64920 -102.55677 34840 ft 494 kts 81°
2026-04-24 23:41 49.66085 -102.45203 34841 ft 494 kts 81°
2026-04-24 23:42 49.67238 -102.34745 34846 ft 494 kts 81°
2026-04-24 23:42 49.68384 -102.24263 34845 ft 493 kts 81°
2026-04-24 23:43 49.69509 -102.13887 34855 ft 493 kts 82°
2026-04-24 23:43 49.70631 -102.03437 34853 ft 493 kts 82°
2026-04-24 23:44 49.71829 -101.93000 34848 ft 492 kts 79°
2026-04-24 23:44 49.72711 -101.82541 34851 ft 491 kts 83°
2026-04-24 23:45 49.73824 -101.72134 34851 ft 490 kts 82°
2026-04-24 23:45 49.74967 -101.61914 34834 ft 472 kts 82°
2026-04-24 23:46 49.76009 -101.52072 34866 ft 469 kts 82°
2026-04-24 23:46 49.77035 -101.41995 34880 ft 479 kts 83°
2026-04-24 23:47 49.78072 -101.31678 34871 ft 489 kts 83°
2026-04-24 23:47 49.79110 -101.21276 34862 ft 492 kts 83°
2026-04-24 23:48 49.80153 -101.10760 34862 ft 493 kts 83°
2026-04-24 23:48 49.81184 -101.00264 34862 ft 493 kts 84°
2026-04-24 23:49 49.82203 -100.89776 34855 ft 492 kts 84°
2026-04-24 23:49 49.83203 -100.79387 34859 ft 489 kts 84°
2026-04-24 23:50 49.84195 -100.68978 34860 ft 488 kts 84°
2026-04-24 23:50 49.85174 -100.58606 34858 ft 486 kts 84°
2026-04-24 23:51 49.86142 -100.48239 34860 ft 485 kts 84°
2026-04-24 23:51 49.87098 -100.37906 34863 ft 483 kts 84°
2026-04-24 23:52 49.88040 -100.27619 34827 ft 481 kts 84°
2026-04-24 23:52 49.88508 -100.22466 34647 ft 485 kts 85°
2026-04-24 23:52 49.88971 -100.17339 34240 ft 484 kts 84°
2026-04-24 23:53 49.89435 -100.12197 33861 ft 480 kts 85°
2026-04-24 23:53 49.89893 -100.07086 33426 ft 476 kts 85°
2026-04-24 23:53 49.90348 -100.01991 32975 ft 476 kts 85°
2026-04-24 23:53 49.90798 -99.96902 32561 ft 475 kts 85°
2026-04-24 23:54 49.91064 -99.91807 32119 ft 472 kts 94°
2026-04-24 23:54 49.90909 -99.86734 31724 ft 469 kts 97°
2026-04-24 23:54 49.90630 -99.81689 31314 ft 469 kts 98°
2026-04-24 23:54 49.90317 -99.76644 30918 ft 471 kts 98°
2026-04-24 23:55 49.90011 -99.71640 30540 ft 472 kts 98°
2026-04-24 23:55 49.89721 -99.66549 30156 ft 475 kts 98°
2026-04-24 23:55 49.89448 -99.61415 29745 ft 477 kts 97°
2026-04-24 23:55 49.89189 -99.56281 29241 ft 479 kts 97°
2026-04-24 23:56 49.89021 -99.52864 28939 ft 479 kts 98°
2026-04-24 23:56 49.88773 -99.47740 28461 ft 471 kts 98°
2026-04-24 23:56 49.88531 -99.42733 27994 ft 463 kts 98°
2026-04-24 23:56 49.88211 -99.36198 27392 ft 454 kts 98°
2026-04-24 23:57 49.88046 -99.32905 27093 ft 453 kts 98°
2026-04-24 23:57 49.87796 -99.28003 26665 ft 456 kts 98°
2026-04-24 23:57 49.87546 -99.23154 26241 ft 458 kts 98°
2026-04-24 23:57 49.87289 -99.18226 25824 ft 459 kts 98°
2026-04-24 23:58 49.87031 -99.13286 25405 ft 460 kts 99°
2026-04-24 23:58 49.86770 -99.08328 24962 ft 461 kts 99°
2026-04-24 23:58 49.86509 -99.03383 24550 ft 460 kts 99°
2026-04-24 23:58 49.86247 -98.98455 24142 ft 456 kts 99°
2026-04-24 23:59 49.85987 -98.93575 23737 ft 450 kts 99°
2026-04-24 23:59 49.85731 -98.88828 23321 ft 445 kts 99°
2026-04-24 23:59 49.85470 -98.84045 22807 ft 444 kts 100°
2026-04-24 23:59 49.85208 -98.79285 22316 ft 442 kts 100°
2026-04-25 00:00 49.84944 -98.74548 21857 ft 441 kts 100°
2026-04-25 00:00 49.84680 -98.69832 21396 ft 439 kts 100°
2026-04-25 00:00 49.84415 -98.65129 20946 ft 437 kts 101°
2026-04-25 00:00 49.84149 -98.60442 20493 ft 435 kts 101°
2026-04-25 00:01 49.83883 -98.55779 20050 ft 432 kts 101°
2026-04-25 00:01 49.83620 -98.51179 19609 ft 426 kts 101°
2026-04-25 00:01 49.83363 -98.46703 19179 ft 419 kts 102°
2026-04-25 00:01 49.83105 -98.42252 18755 ft 413 kts 102°
2026-04-25 00:02 49.82847 -98.37840 18333 ft 407 kts 102°
2026-04-25 00:02 49.82591 -98.33507 17872 ft 402 kts 102°
2026-04-25 00:02 49.82335 -98.29219 17392 ft 397 kts 103°
2026-04-25 00:02 49.82081 -98.24980 16924 ft 393 kts 103°
2026-04-25 00:03 49.81827 -98.20781 16456 ft 389 kts 103°
2026-04-25 00:03 49.81575 -98.16625 15962 ft 386 kts 103°
2026-04-25 00:03 49.81323 -98.12509 15517 ft 382 kts 103°
2026-04-25 00:03 49.81077 -98.08489 15085 ft 378 kts 103°
2026-04-25 00:04 49.80829 -98.04452 14643 ft 375 kts 103°
2026-04-25 00:04 49.80581 -98.00454 14214 ft 371 kts 103°
2026-04-25 00:04 49.80347 -97.96488 13794 ft 369 kts 102°
2026-04-25 00:04 49.80156 -97.92529 13330 ft 367 kts 101°
2026-04-25 00:05 49.79975 -97.88603 13034 ft 362 kts 101°
2026-04-25 00:05 49.79790 -97.84723 13022 ft 358 kts 101°
2026-04-25 00:05 49.79733 -97.80925 12999 ft 352 kts 89°
2026-04-25 00:05 49.80409 -97.77310 13020 ft 347 kts 70°
2026-04-25 00:06 49.81420 -97.74029 13013 ft 337 kts 69°
2026-04-25 00:06 49.82437 -97.70789 12969 ft 333 kts 69°
2026-04-25 00:06 49.83440 -97.67568 13018 ft 332 kts 69°
2026-04-25 00:06 49.84434 -97.64333 13021 ft 333 kts 69°
2026-04-25 00:07 49.85425 -97.61078 13030 ft 334 kts 69°
2026-04-25 00:07 49.86418 -97.57793 12892 ft 338 kts 69°
2026-04-25 00:07 49.87412 -97.54494 12646 ft 338 kts 69°
2026-04-25 00:07 49.88404 -97.51201 12407 ft 336 kts 70°
2026-04-25 00:08 49.89373 -97.47976 12142 ft 331 kts 70°
2026-04-25 00:08 49.90340 -97.44764 11899 ft 326 kts 68°
2026-04-25 00:08 49.91672 -97.41904 11576 ft 331 kts 43°
2026-04-25 00:08 49.93587 -97.39939 11309 ft 328 kts 28°
2026-04-25 00:09 49.95594 -97.38279 11004 ft 326 kts 28°
2026-04-25 00:09 49.97636 -97.36759 10696 ft 325 kts 17°
2026-04-25 00:09 49.99827 -97.35934 10342 ft 324 kts 10°
2026-04-25 00:09 50.02045 -97.35248 9920 ft 327 kts 10°
2026-04-25 00:10 50.04249 -97.34535 9481 ft 329 kts 11°
2026-04-25 00:10 50.06493 -97.33769 9009 ft 331 kts 12°
2026-04-25 00:10 50.08731 -97.32985 8542 ft 328 kts 12°
2026-04-25 00:10 50.10946 -97.32233 8066 ft 324 kts
2026-04-25 00:11 50.13161 -97.31696 7616 ft 320 kts
2026-04-25 00:11 50.15353 -97.31223 7168 ft 315 kts
2026-04-25 00:11 50.17517 -97.30809 6716 ft 310 kts 359°
2026-04-25 00:11 50.19578 -97.31447 6287 ft 298 kts 330°
2026-04-25 00:12 50.21191 -97.33337 5873 ft 285 kts 306°
2026-04-25 00:12 50.22171 -97.35907 5559 ft 269 kts 284°
2026-04-25 00:12 50.22488 -97.38699 5253 ft 255 kts 265°
2026-04-25 00:12 50.22187 -97.41360 4933 ft 244 kts 246°
2026-04-25 00:13 50.21369 -97.43616 4612 ft 236 kts 228°
2026-04-25 00:13 50.20162 -97.45281 4293 ft 230 kts 211°
2026-04-25 00:13 50.18700 -97.46275 3979 ft 229 kts 197°
2026-04-25 00:13 50.17148 -97.46703 3666 ft 232 kts 184°
2026-04-25 00:14 50.15540 -97.46329 3347 ft 237 kts 166°
2026-04-25 00:14 50.13970 -97.45548 3104 ft 236 kts 166°
2026-04-25 00:14 50.12411 -97.44764 2890 ft 234 kts 166°
2026-04-25 00:14 50.10851 -97.43976 2844 ft 238 kts 166°
2026-04-25 00:15 50.09291 -97.43183 2813 ft 233 kts 166°
2026-04-25 00:15 50.07794 -97.42420 2829 ft 219 kts 166°
2026-04-25 00:15 50.06393 -97.41704 2809 ft 206 kts 166°
2026-04-25 00:15 50.05074 -97.41034 2799 ft 195 kts 166°
2026-04-25 00:16 50.03920 -97.39977 2805 ft 204 kts 134°
2026-04-25 00:16 50.03386 -97.37867 2836 ft 220 kts 97°
2026-04-25 00:16 50.03692 -97.35493 2844 ft 230 kts 70°
2026-04-25 00:16 50.04327 -97.33191 2812 ft 229 kts 68°
2026-04-25 00:17 50.04964 -97.30970 2804 ft 220 kts 68°
2026-04-25 00:17 50.05578 -97.28865 2816 ft 214 kts 68°
2026-04-25 00:17 50.06210 -97.26730 2824 ft 214 kts 68°
2026-04-25 00:17 50.06831 -97.24613 2827 ft 215 kts 69°
2026-04-25 00:18 50.07265 -97.22442 2803 ft 205 kts 94°
2026-04-25 00:18 50.06893 -97.20460 2834 ft 190 kts 133°
2026-04-25 00:18 50.06000 -97.18960 2838 ft 189 kts 141°
2026-04-25 00:18 50.04911 -97.17942 2806 ft 180 kts 178°
2026-04-25 00:19 50.03779 -97.18468 2851 ft 171 kts 214°
2026-04-25 00:19 50.02744 -97.19403 2832 ft 172 kts 207°
2026-04-25 00:19 50.01680 -97.20159 2774 ft 165 kts 205°
2026-04-25 00:19 50.00639 -97.20821 2581 ft 157 kts 204°
2026-04-25 00:20 49.99640 -97.21408 2365 ft 150 kts 202°
2026-04-25 00:20 49.98683 -97.21915 2144 ft 143 kts 196°
2026-04-25 00:20 49.97723 -97.22193 1939 ft 136 kts 194°
2026-04-25 00:20 49.96757 -97.22445 1853 ft 146 kts 193°
2026-04-25 00:21 49.95802 -97.22681 1662 ft 135 kts 193°
2026-04-25 00:21 49.94868 -97.22938 1310 ft 137 kts 193°
2026-04-25 00:21 49.93954 -97.23170 1076 ft 131 kts 189°
2026-04-25 00:21 49.93024 -97.23375 938 ft 134 kts 188°
2026-04-25 00:22 49.92108 -97.23579 803 ft 127 kts 188°
2026-04-25 00:22 49.91304 -97.23769 786 ft 110 kts 188°
2026-04-25 00:22 49.90675 -97.23913 787 ft 59 kts 188°
2026-04-25 00:22 49.90361 -97.23992 785 ft 38 kts 189°
2026-04-25 00:23 49.90114 -97.24047 788 ft 33 kts 185°
2026-04-25 00:23 49.89867 -97.24101 786 ft 41 kts 190°
2026-04-25 00:23 49.89635 -97.24173 787 ft 20 kts 207°
2026-04-25 00:23 49.89597 -97.24355 786 ft 20 kts 277°
2026-04-25 00:24 49.89618 -97.24550 785 ft 13 kts 289°
2026-04-25 00:24 49.89676 -97.24655 785 ft 13 kts 328°
2026-04-25 00:24 49.89761 -97.24657 785 ft 12 kts
2026-04-25 00:24 49.89845 -97.24635 785 ft 12 kts 15°
2026-04-25 00:25 49.89911 -97.24581 785 ft 10 kts 72°
2026-04-25 00:25 49.89912 -97.24572 785 ft 0 kts 86°
2026-04-25 00:25 49.89912 -97.24569 785 ft 1 kts 88°
2026-04-25 00:25 49.89911 -97.24556 785 ft 0 kts 97°